Vorticity
7 5 5 6 7 6 6 4 10 8 7 5 4 6 4 8 3 -2 3 -3 -3 1 -0 1 4 4 9 14 14 9 14 6 1 2 6 4 7 3 6 5 5 6 4 5 5
4 5 5 6 6 7 7 7 9 5 7 4 5 4 5 6 10 2 5 3 -3 -1 2 2 3 -1 9 9 12 9 12 4 6 4 7 5 5 5 5 5 5 5 6 5 5
4 4 5 5 5 7 7 8 6 10 4 6 5 5 5 4 3 9 6 9 5 5 5 3 2 3 3 10 7 9 7 8 6 7 5 4 4 4 5 5 4 6 6 6 6
6 6 5 5 6 6 7 7 7 6 10 5 8 5 5 5 1 5 4 4 5 4 3 4 3 3 5 13 9 10 9 5 6 5 5 3 5 5 6 6 8 8 7 7 6
9 9 7 6 6 7 6 6 6 6 7 7 9 5 6 1 7 6 6 7 6 6 6 7 12 14 14 11 11 5 8 7 6 5 5 4 7 7 8 7 8 6 8 9 7
8 9 9 8 7 7 7 6 5 5 5 7 9 7 -2 12 12 6 7 7 9 11 11 11 12 10 12 11 1 12 5 4 6 5 6 4 5 7 4 8 10 6 9 7 6
7 8 9 8 8 8 7 4 5 7 7 7 10 7 7 13 6 6 6 6 8 11 12 9 9 5 11 7 11 6 7 1 1 1 3 4 16 9 3 8 9 8 9 7 5
7 8 8 7 6 6 6 5 6 6 7 6 6 6 8 12 5 6 8 11 14 12 11 8 5 5 6 13 6 6 6 8 2 7 5 4 12 -1 6 7 9 10 7 5 3
7 8 10 10 8 7 8 8 8 8 6 9 11 9 11 6 8 10 13 9 7 7 7 8 6 7 9 9 8 5 3 7 11 2 5 8 1 -2 10 7 14 11 5 7 7
8 10 11 10 8 6 5 9 10 11 9 10 8 5 13 10 9 8 6 5 5 5 4 7 7 9 8 9 8 5 7 7 5 -3 6 3 7 9 8 9 13 4 -4 -2 9
8 9 8 7 5 6 12 9 4 5 3 7 8 20 7 7 7 4 4 5 5 4 9 8 9 8 9 8 7 8 7 7 2 9 0 4 11 16 7 20 11 3 -5 -2 6
8 9 7 7 10 9 4 4 3 5 12 14 10 5 4 4 6 4 5 5 7 7 5 6 9 7 8 5 6 8 9 3 13 -1 6 13 21 22 28 23 -1 5 -2 4 7
8 8 10 8 10 5 2 11 9 8 7 6 5 6 6 5 6 6 6 7 8 9 10 12 7 7 8 3 6 8 11 -1 4 4 22 11 35 -1 17 14 9 -2 -6 10 9
7 8 10 10 4 3 10 6 4 3 7 7 5 1 7 5 8 7 8 6 11 6 9 13 6 9 7 5 8 15 1 3 2 27 11 0 -5 41 -7 6 10 1 -6 7 13
7 11 11 -0 3 12 6 6 0 6 8 12 7 8 8 4 1 9 8 8 7 10 6 4 9 9 3 4 9 4 3 3 21 17 15 12 24 -28 25 11 2 -3 3 3 9
7 9 12 3 11 5 5 -1 4 9 14 9 11 9 9 13 9 5 9 9 9 7 7 10 6 8 6 -1 10 7 7 26 16 17 16 5 3 6 7 5 5 -5 7 3 10
8 7 12 1 14 3 3 4 8 9 6 15 10 7 5 4 5 7 7 9 10 11 12 10 15 6 10 1 15 2 7 14 16 13 -4 -6 34 -4 -5 15 2 -0 5 9 11
8 8 12 2 12 6 0 7 8 6 3 11 9 9 5 6 11 9 9 8 6 9 13 11 11 13 3 2 7 19 10 14 11 5 -29 33 8 -13 9 5 -2 8 8 11 9
8 10 11 4 12 3 1 8 1 5 5 12 12 10 8 12 5 8 13 9 7 6 13 10 12 9 6 4 12 3 2 13 13 15 20 8 1 35 -3 -12 7 0 3 10 10
8 8 9 5 11 2 2 -4 -5 -5 -1 16 11 9 4 12 10 9 12 11 7 7 9 5 18 14 8 6 17 9 7 4 12 11 15 13 15 -13 12 -1 -2 7 7 8 10
9 8 7 7 11 1 2 -0 4 6 16 18 12 -5 6 6 12 7 8 9 5 6 8 7 15 -0 6 8 3 4 10 6 17 11 5 5 1 -4 -2 3 6 9 10 8 10
8 8 12 8 9 5 2 2 6 2 16 12 7 6 9 10 14 7 5 6 4 6 8 10 8 9 5 6 9 9 5 9 11 15 1 0 12 -37 18 4 8 11 10 8 10
9 9 4 11 10 2 -1 -2 6 12 18 13 1 13 11 10 8 10 9 10 7 7 5 2 5 14 17 17 10 -1 -1 5 9 19 13 0 -50 4 4 8 4 9 11 8 11
10 4 13 4 13 5 3 -1 12 6 17 7 1 10 7 8 12 2 7 9 6 7 8 9 9 -2 -12 -11 -4 -3 9 7 7 9 -6 -55 -12 11 6 3 10 7 13 10 11
9 9 7 3 17 3 5 -7 -3 20 11 5 10 9 7 6 12 7 8 5 4 5 6 10 6 3 10 3 4 20 19 16 11 11 -2 -14 6 16 8 -4 13 10 13 11 13
10 7 4 11 -2 1 26 6 1 5 13 8 8 5 14 5 3 -5 11 7 8 8 9 7 7 -5 6 32 10 -8 31 29 22 19 6 14 1 17 12 1 12 12 13 14 13
9 10 9 -6 19 2 -1 22 1 16 11 10 5 11 7 11 7 6 6 5 1 0 0 5 10 5 23 12 -6 61 -20 8 8 3 9 5 16 -1 7 10 13 11 17 13 13
Height
3176 3177 3179 3180 3181 3183 3183 3185 3187 3188 3189 3190 3192 3193 3194 3197 3198 3200 3202 3203 3203 3204 3204 3205 3205 3204 3204 3203 3202 3202 3203 3204 3205 3207 3208 3209 3210 3210 3210 3210 3209 3209 3207 3207 3206
3178 3179 3181 3183 3183 3187 3187 3188 3189 3190 3191 3193 3195 3196 3198 3199 3201 3202 3203 3204 3204 3205 3205 3205 3205 3205 3205 3204 3204 3203 3204 3205 3206 3207 3208 3208 3209 3209 3209 3207 3207 3206 3206 3205 3204
3179 3182 3183 3184 3186 3190 3189 3190 3191 3191 3194 3196 3197 3199 3200 3202 3203 3204 3204 3205 3205 3205 3205 3205 3205 3205 3205 3205 3204 3204 3205 3206 3207 3207 3207 3208 3208 3207 3206 3205 3205 3205 3203 3203 3202
3182 3183 3184 3186 3190 3191 3191 3192 3193 3194 3195 3197 3199 3200 3202 3204 3207 3205 3205 3205 3206 3206 3206 3206 3206 3206 3206 3205 3205 3205 3205 3206 3207 3207 3207 3208 3207 3206 3205 3205 3204 3203 3201 3200 3199
3183 3185 3187 3188 3192 3192 3192 3193 3194 3196 3197 3199 3200 3202 3203 3205 3205 3205 3206 3206 3207 3207 3206 3206 3206 3205 3205 3206 3206 3206 3206 3206 3207 3207 3207 3207 3206 3205 3204 3203 3201 3200 3199 3198 3196
3185 3187 3188 3191 3193 3193 3194 3195 3196 3197 3199 3200 3201 3202 3204 3206 3205 3206 3206 3207 3207 3207 3206 3206 3205 3206 3205 3206 3206 3206 3206 3206 3206 3207 3206 3206 3204 3203 3202 3201 3199 3198 3197 3195 3193
3187 3188 3191 3192 3193 3194 3196 3196 3197 3199 3200 3201 3202 3203 3203 3206 3205 3206 3207 3207 3207 3207 3206 3206 3206 3206 3206 3206 3206 3206 3207 3206 3206 3205 3205 3203 3202 3200 3200 3198 3197 3196 3195 3193 3190
3188 3191 3192 3193 3194 3195 3196 3197 3198 3200 3201 3201 3203 3204 3204 3204 3205 3205 3206 3207 3207 3207 3206 3206 3206 3206 3207 3207 3206 3206 3206 3205 3204 3203 3202 3202 3200 3198 3197 3195 3194 3193 3192 3190 3187
3190 3192 3193 3194 3195 3196 3196 3198 3199 3200 3201 3202 3203 3204 3205 3205 3206 3206 3207 3207 3207 3207 3207 3207 3207 3207 3207 3206 3207 3206 3205 3204 3203 3201 3200 3200 3197 3195 3193 3192 3192 3190 3189 3187 3185
3192 3193 3195 3196 3196 3196 3198 3199 3200 3201 3201 3203 3204 3206 3206 3206 3207 3207 3208 3208 3208 3208 3208 3208 3207 3207 3206 3206 3206 3205 3204 3203 3202 3201 3198 3195 3194 3191 3189 3188 3188 3187 3186 3183 3181
3194 3194 3196 3196 3197 3198 3200 3201 3203 3204 3202 3204 3205 3205 3206 3207 3208 3208 3208 3208 3209 3209 3208 3208 3208 3207 3206 3206 3205 3204 3203 3201 3200 3198 3195 3191 3187 3187 3184 3183 3184 3184 3182 3180 3176
3195 3195 3197 3197 3198 3200 3202 3202 3202 3205 3204 3204 3205 3206 3207 3208 3209 3208 3209 3210 3209 3208 3208 3209 3207 3207 3206 3205 3204 3202 3201 3200 3197 3194 3190 3186 3182 3180 3179 3179 3181 3180 3179 3176 3172
3195 3196 3198 3199 3200 3201 3202 3203 3203 3204 3206 3206 3206 3207 3208 3209 3208 3208 3209 3208 3209 3208 3207 3207 3208 3206 3205 3204 3203 3201 3200 3198 3196 3191 3185 3181 3177 3176 3176 3176 3177 3176 3175 3172 3168
3195 3196 3199 3200 3203 3202 3203 3204 3205 3205 3207 3209 3207 3207 3208 3207 3208 3207 3207 3210 3208 3208 3207 3207 3206 3205 3205 3204 3202 3200 3198 3196 3193 3189 3186 3183 3179 3175 3175 3175 3174 3173 3171 3168 3164
3195 3196 3199 3201 3201 3202 3205 3205 3206 3207 3207 3209 3207 3206 3206 3208 3208 3207 3207 3207 3207 3207 3208 3207 3205 3204 3204 3203 3201 3200 3197 3194 3190 3186 3185 3183 3181 3174 3173 3173 3172 3170 3167 3163 3159
3195 3196 3199 3201 3202 3203 3204 3205 3207 3209 3205 3206 3205 3205 3206 3206 3206 3206 3207 3207 3206 3206 3205 3205 3205 3204 3203 3202 3200 3198 3196 3190 3188 3185 3184 3183 3184 3172 3172 3172 3169 3167 3163 3159 3154
3194 3195 3198 3200 3202 3203 3205 3206 3208 3205 3206 3206 3204 3204 3205 3205 3205 3206 3206 3206 3206 3206 3204 3203 3203 3203 3202 3202 3200 3198 3196 3191 3190 3186 3184 3182 3181 3171 3170 3168 3167 3164 3159 3154 3149
3194 3194 3196 3199 3201 3203 3205 3207 3205 3203 3203 3203 3203 3203 3204 3204 3204 3204 3205 3204 3204 3204 3202 3202 3202 3202 3201 3201 3200 3198 3198 3198 3198 3193 3185 3180 3175 3170 3168 3166 3164 3159 3154 3149 3143
3192 3193 3195 3198 3200 3202 3205 3204 3203 3202 3203 3202 3202 3202 3202 3202 3204 3203 3203 3203 3203 3202 3203 3200 3200 3200 3200 3200 3201 3198 3198 3198 3196 3192 3190 3177 3172 3168 3166 3163 3159 3155 3149 3144 3138
3189 3192 3194 3196 3198 3200 3202 3202 3201 3201 3201 3201 3201 3201 3201 3201 3202 3201 3201 3201 3201 3201 3200 3200 3199 3199 3199 3199 3198 3197 3198 3196 3194 3194 3190 3175 3170 3166 3163 3160 3155 3149 3144 3139 3133
3187 3189 3192 3194 3197 3198 3199 3199 3200 3200 3200 3200 3199 3199 3200 3200 3199 3199 3199 3199 3199 3199 3198 3198 3198 3199 3198 3196 3195 3196 3194 3193 3193 3192 3191 3185 3165 3163 3160 3156 3150 3144 3138 3133 3128
3185 3187 3190 3192 3195 3195 3196 3197 3198 3197 3197 3197 3197 3197 3197 3198 3198 3197 3197 3197 3196 3197 3197 3197 3195 3194 3195 3194 3193 3192 3191 3191 3189 3188 3186 3183 3164 3158 3156 3151 3145 3140 3134 3129 3124
3182 3185 3187 3189 3190 3192 3194 3195 3195 3195 3194 3195 3195 3195 3195 3196 3197 3196 3195 3195 3194 3195 3195 3195 3194 3193 3192 3193 3191 3189 3188 3187 3185 3183 3178 3179 3159 3157 3153 3148 3142 3135 3130 3124 3118
3180 3183 3184 3185 3187 3190 3191 3192 3192 3192 3192 3192 3193 3193 3193 3194 3194 3194 3194 3193 3192 3193 3193 3192 3191 3191 3191 3189 3188 3185 3183 3182 3181 3178 3172 3163 3154 3154 3150 3143 3137 3131 3125 3119 3113
3177 3178 3180 3181 3183 3186 3188 3189 3189 3189 3189 3190 3190 3190 3191 3191 3191 3191 3191 3191 3191 3190 3190 3190 3188 3186 3185 3184 3180 3177 3176 3175 3172 3170 3167 3157 3151 3148 3144 3138 3133 3126 3120 3114 3109
3174 3175 3177 3178 3180 3181 3182 3184 3186 3186 3187 3187 3187 3188 3188 3189 3189 3188 3188 3188 3188 3188 3187 3186 3184 3181 3178 3177 3174 3170 3169 3167 3165 3163 3157 3154 3146 3145 3139 3134 3127 3121 3115 3110 3105
3169 3170 3173 3175 3176 3177 3179 3180 3182 3183 3184 3184 3185 3185 3185 3186 3186 3186 3185 3185 3184 3184 3183 3183 3181 3179 3174 3173 3171 3164 3162 3161 3159 3157 3154 3148 3143 3138 3133 3128 3122 3116 3110 3105 3100